EZY404 EGPH-LIRN

Flight info

Callsign EZY404
Flight time N/A
Altitude 35000
Route TLA Y96 OTBUN DCT GODOS DCT AMGOD DCT OTMEC DCT TUSUK DCT BATUB DCT TIRUL M738 NATAG DCT LORLO DCT BORMI DCT ERDON DCT TUFTE DCT SUXUB DCT ERIKA
Aircraft A21N/M-SDE3FGHIRWY/LB1

Departure

Time 2026-04-26 08:48
Airport Edinburgh Airport (EGPH)

Arrival

Time N/A
Airport Naples International Airport (LIRN)
Time Latitude Longitude Altitude Speed Heading
2026-04-26 08:09 55.94883 -3.36550 105 ft 0 kts 149°
2026-04-26 08:38 55.94886 -3.36553 105 ft 2 kts 149°
2026-04-26 08:38 55.94894 -3.36562 105 ft 1 kts 149°
2026-04-26 08:38 55.94906 -3.36578 105 ft 2 kts 131°
2026-04-26 08:39 55.94914 -3.36600 105 ft 2 kts 117°
2026-04-26 08:39 55.94920 -3.36625 105 ft 2 kts 102°
2026-04-26 08:39 55.94921 -3.36651 105 ft 2 kts 87°
2026-04-26 08:39 55.94918 -3.36678 105 ft 2 kts 72°
2026-04-26 08:40 55.94914 -3.36696 105 ft 0 kts 61°
2026-04-26 08:40 55.94911 -3.36706 105 ft 0 kts 59°
2026-04-26 08:43 55.94912 -3.36704 105 ft 0 kts 59°
2026-04-26 08:44 55.94918 -3.36686 105 ft 2 kts 58°
2026-04-26 08:44 55.94930 -3.36650 105 ft 4 kts 59°
2026-04-26 08:44 55.94949 -3.36596 105 ft 6 kts 59°
2026-04-26 08:44 55.94976 -3.36516 105 ft 8 kts 59°
2026-04-26 08:45 55.95011 -3.36414 105 ft 10 kts 53°
2026-04-26 08:45 55.95078 -3.36401 105 ft 10 kts
2026-04-26 08:45 55.95128 -3.36298 105 ft 12 kts 59°
2026-04-26 08:45 55.95177 -3.36154 105 ft 14 kts 59°
2026-04-26 08:46 55.95232 -3.35994 105 ft 15 kts 59°
2026-04-26 08:46 55.95287 -3.35829 105 ft 15 kts 59°
2026-04-26 08:46 55.95344 -3.35660 105 ft 16 kts 59°
2026-04-26 08:46 55.95401 -3.35494 105 ft 14 kts 59°
2026-04-26 08:47 55.95459 -3.35406 105 ft 9 kts 347°
2026-04-26 08:47 55.95515 -3.35458 105 ft 9 kts 328°
2026-04-26 08:47 55.95568 -3.35526 104 ft 8 kts 294°
2026-04-26 08:47 55.95546 -3.35636 104 ft 11 kts 238°
2026-04-26 08:48 55.95397 -3.36076 105 ft 75 kts 239°
2026-04-26 08:48 55.95013 -3.37204 105 ft 134 kts 239°
2026-04-26 08:48 55.94459 -3.38826 255 ft 167 kts 238°
2026-04-26 08:48 55.93847 -3.40597 781 ft 172 kts 237°
2026-04-26 08:49 55.93214 -3.42415 1439 ft 173 kts 236°
2026-04-26 08:49 55.92581 -3.44232 2036 ft 178 kts 237°
2026-04-26 08:49 55.91913 -3.46149 2424 ft 192 kts 237°
2026-04-26 08:49 55.91185 -3.48249 2741 ft 207 kts 238°
2026-04-26 08:50 55.90384 -3.50573 2998 ft 229 kts 238°
2026-04-26 08:50 55.89552 -3.53107 3387 ft 246 kts 240°
2026-04-26 08:50 55.88685 -3.55794 3973 ft 254 kts 240°
2026-04-26 08:50 55.87638 -3.58285 4681 ft 256 kts 219°
2026-04-26 08:51 55.84259 -3.59508 6108 ft 266 kts 165°
2026-04-26 08:51 55.82650 -3.57873 6815 ft 274 kts 137°
2026-04-26 08:51 55.81588 -3.55074 7538 ft 280 kts 119°
2026-04-26 08:52 55.80532 -3.52183 8194 ft 281 kts 140°
2026-04-26 08:52 55.78866 -3.50525 8881 ft 277 kts 165°
2026-04-26 08:52 55.77029 -3.49621 9579 ft 278 kts 168°
2026-04-26 08:52 55.75162 -3.48778 10237 ft 282 kts 168°
2026-04-26 08:53 55.73267 -3.47859 10777 ft 290 kts 167°
2026-04-26 08:53 55.71264 -3.46827 11071 ft 307 kts 166°
2026-04-26 08:53 55.69187 -3.45721 11344 ft 323 kts 166°
2026-04-26 08:53 55.66998 -3.44538 11619 ft 338 kts 166°
2026-04-26 08:54 55.64719 -3.43300 12051 ft 346 kts 165°
2026-04-26 08:54 55.62409 -3.42043 12635 ft 349 kts 166°
2026-04-26 08:54 55.60085 -3.40780 13194 ft 353 kts 166°
2026-04-26 08:54 55.57763 -3.39523 13738 ft 356 kts 166°
2026-04-26 08:55 55.55381 -3.38236 14292 ft 359 kts 166°
2026-04-26 08:55 55.53027 -3.36880 14816 ft 363 kts 160°
2026-04-26 08:55 55.50921 -3.34389 15287 ft 374 kts 136°
2026-04-26 08:55 55.49459 -3.30562 15809 ft 382 kts 114°
2026-04-26 08:56 55.48798 -3.26019 16333 ft 386 kts 101°
2026-04-26 08:56 55.48358 -3.21393 16803 ft 390 kts 101°
2026-04-26 08:56 55.47906 -3.16694 17260 ft 393 kts 101°
2026-04-26 08:56 55.47416 -3.11887 17730 ft 396 kts 102°
2026-04-26 08:57 55.46912 -3.07118 18185 ft 399 kts 102°
2026-04-26 08:57 55.46320 -3.02365 18632 ft 401 kts 107°
2026-04-26 08:57 55.45405 -2.97752 19043 ft 402 kts 115°
2026-04-26 08:57 55.44172 -2.93365 19453 ft 403 kts 121°
2026-04-26 08:58 55.42796 -2.89046 19874 ft 405 kts 122°
2026-04-26 08:58 55.41396 -2.84741 20257 ft 408 kts 122°
2026-04-26 08:58 55.40001 -2.80430 20647 ft 411 kts 122°
2026-04-26 08:58 55.38587 -2.76040 21025 ft 414 kts 121°
2026-04-26 08:59 55.37192 -2.71695 21401 ft 416 kts 121°
2026-04-26 08:59 55.35754 -2.67218 21820 ft 418 kts 121°
2026-04-26 08:59 55.34339 -2.62825 22151 ft 421 kts 121°
2026-04-26 08:59 55.32888 -2.58321 22491 ft 424 kts 121°
2026-04-26 09:00 55.31448 -2.53857 22833 ft 427 kts 121°
2026-04-26 09:00 55.29972 -2.49291 23173 ft 429 kts 121°
2026-04-26 09:00 55.28499 -2.44745 23509 ft 432 kts 121°
2026-04-26 09:00 55.27033 -2.40142 23823 ft 435 kts 120°
2026-04-26 09:01 55.25601 -2.35498 24149 ft 437 kts 120°
2026-04-26 09:01 55.24164 -2.30801 24464 ft 440 kts 120°
2026-04-26 09:01 55.22720 -2.26092 24775 ft 442 kts 120°
2026-04-26 09:01 55.21264 -2.21363 25070 ft 444 kts 121°
2026-04-26 09:02 55.19809 -2.16651 25335 ft 447 kts 121°
2026-04-26 09:02 55.18314 -2.11825 25625 ft 450 kts 121°
2026-04-26 09:02 55.16834 -2.07057 25893 ft 452 kts 121°
2026-04-26 09:02 55.15323 -2.02207 26175 ft 455 kts 121°
2026-04-26 09:03 55.13816 -1.97372 26435 ft 457 kts 122°
2026-04-26 09:03 55.12293 -1.92507 26710 ft 460 kts 122°
2026-04-26 09:03 55.10757 -1.87608 26948 ft 462 kts 121°
2026-04-26 09:03 55.09233 -1.82756 27197 ft 464 kts 121°
2026-04-26 09:04 55.07683 -1.77824 27446 ft 467 kts 121°
2026-04-26 09:04 55.06121 -1.72872 27688 ft 469 kts 121°
2026-04-26 09:04 55.04541 -1.67869 27917 ft 471 kts 121°
2026-04-26 09:04 55.02967 -1.62902 28139 ft 473 kts 121°
2026-04-26 09:05 55.01377 -1.57892 28357 ft 476 kts 121°
2026-04-26 09:05 54.99770 -1.52837 28574 ft 478 kts 121°
2026-04-26 09:05 54.98172 -1.47819 28773 ft 480 kts 121°
2026-04-26 09:05 54.96539 -1.42704 28962 ft 482 kts 121°
2026-04-26 09:06 54.94912 -1.37617 29168 ft 484 kts 121°
2026-04-26 09:06 54.93297 -1.32582 29361 ft 486 kts 122°
2026-04-26 09:06 54.91633 -1.27400 29558 ft 488 kts 122°
2026-04-26 09:06 54.89984 -1.22279 29719 ft 489 kts 122°
2026-04-26 09:07 54.88327 -1.17138 29947 ft 490 kts 122°
2026-04-26 09:07 54.86685 -1.12055 30188 ft 489 kts 122°
2026-04-26 09:07 54.85027 -1.06943 30425 ft 489 kts 122°
2026-04-26 09:07 54.83350 -1.01783 30680 ft 489 kts 122°
2026-04-26 09:08 54.81697 -0.96708 30890 ft 489 kts 122°
2026-04-26 09:08 54.80024 -0.91583 31126 ft 488 kts 122°
2026-04-26 09:08 54.78374 -0.86535 31402 ft 486 kts 122°
2026-04-26 09:08 54.76703 -0.81434 31688 ft 484 kts 122°
2026-04-26 09:09 54.75059 -0.76423 31953 ft 482 kts 121°
2026-04-26 09:09 54.73417 -0.71427 32187 ft 481 kts 121°
2026-04-26 09:09 54.71754 -0.66378 32409 ft 481 kts 121°
2026-04-26 09:09 54.70116 -0.61417 32618 ft 480 kts 121°
2026-04-26 09:10 54.68468 -0.56431 32828 ft 480 kts 121°
2026-04-26 09:10 54.66804 -0.51410 33034 ft 479 kts 121°
2026-04-26 09:10 54.65173 -0.46499 33243 ft 479 kts 121°
2026-04-26 09:10 54.63517 -0.41523 33457 ft 478 kts 121°
2026-04-26 09:11 54.61872 -0.36587 33632 ft 478 kts 121°
2026-04-26 09:11 54.60194 -0.31564 33763 ft 479 kts 122°
2026-04-26 09:11 54.58557 -0.26674 33891 ft 480 kts 122°
2026-04-26 09:11 54.56886 -0.21698 34022 ft 480 kts 122°
2026-04-26 09:12 54.55214 -0.16726 34143 ft 481 kts 122°
2026-04-26 09:12 54.53535 -0.11743 34282 ft 481 kts 122°
2026-04-26 09:12 54.51863 -0.06794 34409 ft 482 kts 122°
2026-04-26 09:12 54.50191 -0.01854 34532 ft 482 kts 122°
2026-04-26 09:13 54.48500 0.03132 34649 ft 483 kts 122°
2026-04-26 09:13 54.45135 0.13030 34853 ft 484 kts 121°
2026-04-26 09:13 54.43425 0.18046 34966 ft 484 kts 121°
2026-04-26 09:14 54.41745 0.22961 35079 ft 484 kts 121°
2026-04-26 09:14 54.38338 0.32899 35263 ft 485 kts 121°
2026-04-26 09:15 54.34930 0.42802 35334 ft 486 kts 121°
2026-04-26 09:15 54.31494 0.52745 35344 ft 487 kts 121°
2026-04-26 09:16 54.28056 0.62650 35338 ft 487 kts 121°
2026-04-26 09:16 54.24594 0.72588 35338 ft 487 kts 122°
2026-04-26 09:17 54.21143 0.82456 35339 ft 488 kts 122°
2026-04-26 09:17 54.17665 0.92356 35349 ft 488 kts 122°
2026-04-26 09:18 54.14166 1.02281 35343 ft 488 kts 122°
2026-04-26 09:18 54.10685 1.12112 35343 ft 487 kts 122°
2026-04-26 09:19 54.07193 1.21935 35342 ft 486 kts 122°
2026-04-26 09:19 54.03708 1.31698 35345 ft 487 kts 122°
2026-04-26 09:20 54.00183 1.41538 35347 ft 488 kts 122°
2026-04-26 09:20 53.96680 1.51280 35349 ft 487 kts 122°
2026-04-26 09:21 53.93138 1.61085 35353 ft 487 kts 122°
2026-04-26 09:21 53.89628 1.70769 35360 ft 486 kts 123°
2026-04-26 09:22 53.86076 1.80526 35358 ft 486 kts 123°
2026-04-26 09:22 53.82533 1.90223 35359 ft 486 kts 123°
2026-04-26 09:23 53.78991 1.99880 35365 ft 486 kts 122°
2026-04-26 09:23 53.75441 2.09517 35358 ft 485 kts 122°
2026-04-26 09:24 53.71896 2.19111 35356 ft 484 kts 122°
2026-04-26 09:24 53.68327 2.28728 35360 ft 484 kts 122°
2026-04-26 09:25 53.64788 2.38231 35358 ft 484 kts 122°
2026-04-26 09:25 53.61203 2.47818 35355 ft 483 kts 122°
2026-04-26 09:26 53.57641 2.57311 35355 ft 483 kts 122°
2026-04-26 09:26 53.54066 2.66798 35351 ft 483 kts 123°
2026-04-26 09:27 53.50460 2.76332 35347 ft 483 kts 123°
2026-04-26 09:27 53.46870 2.85793 35347 ft 483 kts 123°
2026-04-26 09:28 53.43281 2.95215 35347 ft 482 kts 123°
2026-04-26 09:28 53.39671 3.04657 35350 ft 481 kts 123°
2026-04-26 09:29 53.36073 3.14031 35352 ft 481 kts 123°
2026-04-26 09:29 53.32478 3.23364 35351 ft 481 kts 123°
2026-04-26 09:30 53.28772 3.32690 35351 ft 480 kts 127°
2026-04-26 09:30 53.24404 3.40997 35353 ft 478 kts 137°
2026-04-26 09:31 53.19309 3.47917 35352 ft 475 kts 147°
2026-04-26 09:31 53.13637 3.53522 35352 ft 474 kts 153°
2026-04-26 09:32 53.07924 3.58822 35347 ft 473 kts 152°
2026-04-26 09:32 53.02324 3.64471 35343 ft 475 kts 146°
2026-04-26 09:33 52.97231 3.71480 35342 ft 477 kts 137°
2026-04-26 09:33 52.92906 3.79682 35346 ft 477 kts 127°
2026-04-26 09:34 52.89171 3.88732 35353 ft 477 kts 124°
2026-04-26 09:34 52.85480 3.97837 35355 ft 477 kts 124°
2026-04-26 09:35 52.81757 4.06935 35355 ft 477 kts 125°
2026-04-26 09:35 52.78059 4.15910 35355 ft 477 kts 125°
2026-04-26 09:36 52.74312 4.24963 35356 ft 477 kts 125°
2026-04-26 09:36 52.70604 4.33886 35355 ft 476 kts 125°
2026-04-26 09:37 52.66866 4.42849 35353 ft 475 kts 125°
2026-04-26 09:37 52.63113 4.51817 35348 ft 475 kts 125°
2026-04-26 09:38 52.59398 4.60665 35344 ft 474 kts 125°
2026-04-26 09:38 52.55647 4.69571 35339 ft 474 kts 126°
2026-04-26 09:39 52.51900 4.78432 35337 ft 473 kts 126°
2026-04-26 09:39 52.48141 4.87291 35336 ft 473 kts 126°
2026-04-26 09:40 52.44403 4.96070 35339 ft 473 kts 126°
2026-04-26 09:40 52.40636 5.04886 35342 ft 472 kts 126°
2026-04-26 09:41 52.36870 5.13671 35344 ft 472 kts 126°
2026-04-26 09:41 52.33114 5.22404 35344 ft 472 kts 126°
2026-04-26 09:42 52.29332 5.31167 35344 ft 472 kts 126°
2026-04-26 09:42 52.25569 5.39861 35342 ft 472 kts 126°
2026-04-26 09:43 52.21800 5.48536 35345 ft 471 kts 126°
2026-04-26 09:43 52.18024 5.57200 35342 ft 471 kts 126°
2026-04-26 09:44 52.14219 5.65902 35343 ft 471 kts 127°
2026-04-26 09:44 52.10425 5.74474 35341 ft 471 kts 128°
2026-04-26 09:45 52.06191 5.82505 35343 ft 469 kts 135°
2026-04-26 09:45 52.01405 5.89653 35340 ft 467 kts 142°
2026-04-26 09:46 51.96275 5.96132 35330 ft 467 kts 143°
2026-04-26 09:46 51.91163 6.02555 35321 ft 467 kts 143°
2026-04-26 09:47 51.86024 6.09008 35317 ft 467 kts 143°
2026-04-26 09:47 51.80886 6.15442 35316 ft 467 kts 143°
2026-04-26 09:48 51.75747 6.21865 35316 ft 466 kts 143°
2026-04-26 09:48 51.70650 6.28216 35316 ft 466 kts 143°
2026-04-26 09:49 51.65518 6.34595 35322 ft 466 kts 143°
2026-04-26 09:49 51.60382 6.40955 35315 ft 466 kts 143°
2026-04-26 09:50 51.55264 6.47278 35318 ft 466 kts 143°
2026-04-26 09:50 51.50094 6.53644 35313 ft 466 kts 143°
2026-04-26 09:51 51.44965 6.59941 35317 ft 466 kts 143°
2026-04-26 09:51 51.39813 6.66248 35311 ft 465 kts 144°
2026-04-26 09:52 51.34674 6.72522 35314 ft 464 kts 144°
2026-04-26 09:52 51.27153 6.81674 35313 ft 464 kts 144°
2026-04-26 09:53 51.22007 6.87912 35312 ft 464 kts 144°
2026-04-26 09:53 51.16892 6.94094 35308 ft 465 kts 143°
2026-04-26 09:54 51.12033 6.99951 35305 ft 465 kts 143°
2026-04-26 09:54 51.06859 7.06171 35295 ft 464 kts 144°
2026-04-26 09:55 51.01834 7.12195 35296 ft 463 kts 143°
2026-04-26 09:55 50.96659 7.18381 35295 ft 463 kts 144°
2026-04-26 09:56 50.91534 7.24487 35296 ft 463 kts 143°
2026-04-26 09:56 50.86369 7.30627 35290 ft 464 kts 144°
2026-04-26 09:57 50.81206 7.36747 35288 ft 463 kts 144°
2026-04-26 09:57 50.76053 7.42838 35282 ft 463 kts 144°
2026-04-26 09:58 50.70874 7.48942 35278 ft 463 kts 144°
2026-04-26 09:58 50.65737 7.54978 35278 ft 463 kts 144°
2026-04-26 09:59 50.60563 7.61041 35276 ft 464 kts 144°
2026-04-26 09:59 50.55376 7.67104 35274 ft 464 kts 145°
2026-04-26 10:00 50.50158 7.73185 35272 ft 464 kts 145°
2026-04-26 10:00 50.44976 7.79208 35274 ft 463 kts 145°
2026-04-26 10:01 50.39813 7.85193 35274 ft 464 kts 145°
2026-04-26 10:01 50.34625 7.91188 35272 ft 464 kts 145°
2026-04-26 10:02 50.29446 7.97161 35273 ft 464 kts 145°
2026-04-26 10:02 50.24252 8.03136 35275 ft 464 kts 145°
2026-04-26 10:03 50.19039 8.09112 35273 ft 464 kts 145°
2026-04-26 10:03 50.13681 8.14709 35274 ft 463 kts 151°
2026-04-26 10:04 50.07991 8.19273 35270 ft 461 kts 158°
2026-04-26 10:04 50.02124 8.23324 35275 ft 460 kts 158°
2026-04-26 10:05 49.96256 8.27385 35274 ft 460 kts 158°
2026-04-26 10:05 49.90419 8.31419 35271 ft 461 kts 158°
2026-04-26 10:06 49.84529 8.35482 35271 ft 460 kts 158°
2026-04-26 10:06 49.78686 8.39502 35269 ft 460 kts 158°
2026-04-26 10:07 49.72813 8.43532 35271 ft 460 kts 158°
2026-04-26 10:07 49.66962 8.47537 35271 ft 459 kts 158°
2026-04-26 10:08 49.61129 8.51518 35269 ft 459 kts 158°
2026-04-26 10:08 49.55294 8.55490 35271 ft 458 kts 158°
2026-04-26 10:09 49.49456 8.59456 35271 ft 459 kts 158°
2026-04-26 10:09 49.43624 8.63406 35270 ft 459 kts 158°
2026-04-26 10:10 49.37850 8.67308 35265 ft 459 kts 159°
2026-04-26 10:10 49.31988 8.71256 35264 ft 458 kts 159°
2026-04-26 10:11 49.26158 8.75176 35265 ft 458 kts 159°
2026-04-26 10:11 49.20327 8.79083 35260 ft 458 kts 159°
2026-04-26 10:12 49.14516 8.82968 35257 ft 458 kts 159°
2026-04-26 10:12 49.08694 8.86853 35246 ft 458 kts 159°
2026-04-26 10:13 49.02860 8.90733 35241 ft 458 kts 159°
2026-04-26 10:13 48.97007 8.94615 35235 ft 457 kts 159°
2026-04-26 10:14 48.91152 8.98492 35237 ft 458 kts 159°
2026-04-26 10:14 48.85379 9.02305 35238 ft 459 kts 159°
2026-04-26 10:15 48.79531 9.06155 35233 ft 458 kts 159°
2026-04-26 10:15 48.73679 9.09999 35236 ft 458 kts 159°
2026-04-26 10:16 48.67863 9.13807 35241 ft 458 kts 159°
2026-04-26 10:16 48.62022 9.17625 35239 ft 458 kts 159°
2026-04-26 10:17 48.56175 9.21435 35238 ft 457 kts 159°
2026-04-26 10:17 48.50325 9.25237 35230 ft 457 kts 159°
2026-04-26 10:18 48.44478 9.29030 35224 ft 457 kts 159°
2026-04-26 10:18 48.38650 9.32802 35222 ft 457 kts 159°
2026-04-26 10:19 48.32785 9.36587 35216 ft 457 kts 159°
2026-04-26 10:19 48.26960 9.40337 35213 ft 458 kts 159°
2026-04-26 10:20 48.21106 9.44100 35217 ft 459 kts 159°
2026-04-26 10:20 48.15213 9.47878 35216 ft 459 kts 159°
2026-04-26 10:21 48.09362 9.51617 35214 ft 459 kts 159°
2026-04-26 10:21 48.03521 9.55545 35217 ft 460 kts 155°
2026-04-26 10:22 47.97956 9.60362 35230 ft 463 kts 148°
2026-04-26 10:22 47.92677 9.65760 35231 ft 463 kts 148°
2026-04-26 10:23 47.87402 9.71153 35221 ft 463 kts 148°
2026-04-26 10:23 47.84750 9.73856 35216 ft 463 kts 148°